User: anonymous   Login
Location: Kitt Peak
(31.9639°N, 111.5992°W)
Time: 01:17:46
(UTC-07:00)
Language:

XW-2C - Orbit

View from above orbital plane
View from above orbital plane
View from above satellite
View from above satellite

Ground track
Ground track

The orbit data is extracted from the following two-line orbital elements,

1 40906U 15049H   24260.17191816  .00065966  00000-0  11030-2 0  9995
2 40906  97.4730 279.8433 0004624 353.5880   6.5312 15.51675159498536
Epoch (UTC): 16 September 2024 04:07:33
Eccentricity: 0.0004624
inclination: 97.4730°
perigee height: 409 km
apogee height: 415 km
right ascension of ascending node: 279.8433°
argument of perigee: 353.5880°
revolutions per day: 15.51675159
mean anomaly at epoch: 6.5312°
orbit number at epoch: 49853

The dashed part of the orbit path shows where the satellite is in the earth's shadow,  

DLR